Regional Weather Roundup
Issued by NWS

Home | Current Version | Previous Version | Text Only | Print | Product List | Glossary Off
Versions: 1 2 3 4 5 6 7 8 9 10 11 12 13 14 15 16 17 18 19 20 21 22 23 24 25 26 27 28 29 30 31 32 33 34 35 36 37 38 39 40 41 42 43 44 45 46 47 48 49 50

311
ASUS43 KDMX 130401
RWRIA

WEATHER ROUNDUP FOR IOWA
NATIONAL WEATHER SERVICE DES MOINES IA
1000 PM CST TUE DEC 12 2017

NOTE: "FAIR" INDICATES FEW OR NO CLOUDS BELOW 12,000 FEET WITH NO
SIGNIFICANT WEATHER AND/OR OBSTRUCTIONS TO VISIBILITY.

* - THESE STATIONS ARE NOT NWS STATIONS...THUS NOT UNDER NWS
QUALITY CONTROL.  THEY ALSO DO NOT REPORT WEATHER SUCH
AS PRECIPITATION OR FOG.

IAZ001>003-012>014-020>022-031>034-043>046-130500-
   NORTHWEST IOWA

CITY           SKY/WX    TMP DP  RH WIND       PRES   REMARKS
CARROLL *      PTCLDY    34  25  69 SW22G29   29.78F WCI  22
CHEROKEE *     CLEAR     31  26  81 SW3       29.75F
DENISON *      CLEAR     30  25  80 S7        29.81F WCI  23
LE MARS *      CLEAR     32  25  74 S6        29.74F WCI  26
ORANGE CITY *  CLEAR     34  28  80 SW10      29.72F WCI  26
SHELDON *      CLEAR     32  25  74 S12       29.70F WCI  23
SIOUX CITY     CLEAR     26  21  81 E7        29.77F WCI  18
SPENCER        CLEAR     30  24  78 SW9       29.73F WCI  22
STORM LAKE *   CLEAR     32  25  74 SW12      29.74F WCI  23
$$

IAZ055>058-069>071-079>083-090>094-130500-
   SOUTHWEST IOWA

CITY           SKY/WX    TMP DP  RH WIND       PRES   REMARKS
ATLANTIC *     CLEAR     28  25  86 S9        29.85F WCI  20
AUDUBON *      CLEAR     30  27  86 S12G17    29.83F WCI  21
CLARINDA *       N/A     27  23  86 S7        29.91F WCI  19
COUNCIL BLFS * CLEAR     36  27  69 SW14      29.83F WCI  27
CRESTON *      CLEAR     30  23  74 SW10      29.90F WCI  21
HARLAN  *      CLEAR     28  25  86 S12       29.86F WCI  18
LAMONI         CLOUDY    27  19  72 S12       29.92F WCI  17
RED OAK *      CLEAR     27  23  86 MISG      29.87F
SHENANDOAH *   CLEAR     30  25  80 S9        29.88F WCI  22
$$

IAZ047>049-059>061-072>074-084-130500-
   CENTRAL IOWA

CITY           SKY/WX    TMP DP  RH WIND       PRES   REMARKS
AMES           PTCLDY    29  22  75 S8        29.85F WCI  21
ANKENY *       MOCLDY    30  21  69 S8        29.88F WCI  23
BOONE *        CLEAR     30  23  74 S13G21    29.82F WCI  20
CHARITON *     CLEAR     27  19  74 S8        29.91F WCI  18
DES MOINES     CLEAR     28  20  71 S9        29.88F WCI  19
GRINNELL*      CLOUDY    27  18  67 S9        29.91F WCI  18
KNOXVILLE *    PTCLDY    28  18  64 S9        29.89F WCI  20
MARSHALLTOWN   CLOUDY    30  20  66 S12       29.87F WCI  20
NEWTON *       CLOUDY    28  19  69 SW12      29.89F WCI  18
PELLA *        PTCLDY    27  18  71 S5        29.93F WCI  21
PERRY *          N/A     26  20  78 S9        29.83F WCI  16
$$

IAZ004>006-015-016-023>025-035-036-130500-
   NORTH CENTRAL IOWA

CITY           SKY/WX    TMP DP  RH WIND       PRES   REMARKS
ALGONA *       CLOUDY    27  23  86 S13       29.75F WCI  16
CLARION *      CLEAR     28  23  80 S13       29.79F WCI  18
ESTHERVILLE    CLOUDY    27  24  89 SW10      29.71F WCI  17
FORT DODGE *   CLEAR     28  22  78 S13       29.79F WCI  17
MASON CITY     CLOUDY    31  21  66 S13       29.78F WCI  21
FOREST CITY *  CLOUDY    32  25  74 SW12      29.76F WCI  23
WEBSTER CITY * CLEAR     28  21  74 S14       29.78F WCI  17
IOWA FALLS *   CLOUDY    32  23  70 S16       29.84F WCI  21
$$

IAZ007>011-017>019-026>030-037>042-050>054-066-130500-
   NORTHEAST IOWA

CITY           SKY/WX    TMP DP  RH WIND       PRES   REMARKS
CEDAR RAPIDS   CLOUDY    25   9  50 S9        29.91F WCI  15
CHARLES CITY * CLOUDY    28  19  69 S13       29.82F WCI  18
CLINTON *      CLOUDY    24  14  65 S7        29.95F WCI  16
DECORAH *      CLOUDY    27  18  69 S9G17     29.81F WCI  17
DUBUQUE        CLOUDY    23  13  65 SW13      29.88F WCI  11
MONTICELLO *   CLOUDY    27   9  46 SW8       29.90F WCI  18
OELWEIN *      CLOUDY    27  16  63 S14       29.85F WCI  15
WATERLOO       CLOUDY    28  16  60 S9        29.85F WCI  19
$$

IAZ064-065-067-068-078-130500-
   EAST CENTRAL IOWA

CITY           SKY/WX    TMP DP  RH WIND       PRES   REMARKS
DAVENPORT      MOCLDY    24   6  46 S8        29.97F WCI  15
IOWA CITY      CLOUDY    26   8  46 SE5       29.96F WCI  20
MT. PLEASANT * CLOUDY    22   6  49 S8        29.97F WCI  12
MUSCATINE *    CLOUDY    23   7  50 S5        29.98F WCI  17
QUAD CITIES    CLOUDY    23   6  48 CALM      29.96F
$$

IAZ062-063-075>077-085>089-095>099-130500-
   SOUTHEAST IOWA

CITY           SKY/WX    TMP DP  RH WIND       PRES   REMARKS
BURLINGTON     CLOUDY    23   8  52 SW7       29.98F WCI  15
FAIRFIELD *    CLOUDY    25   9  50 S6        29.94F WCI  18
FORT MADISON * CLOUDY    27   7  43 SW6       29.98F WCI  20
KEOKUK *       CLOUDY    25   7  46 SW6       29.99F WCI  18
OSKALOOSA *    MOCLDY    27  17  65 SW10      29.92F WCI  17
OTTUMWA        MOCLDY    28  16  60 SW12      29.93F WCI  18
WASHINGTON *   CLOUDY    23  10  58 S7        29.96F WCI  15
$$

ABBREVIATIONS USED IN REMARKS
   TC - TEMPERATURES IN CELSIUS
  WCI - WIND CHILL INDEX
   HX - HEAT INDEX
  VSB - VISIBILITY
$$





USA.gov is the U.S. government's official web portal to all federal, state and local government web resources and services.